sim
Sign-in with your pilot id or email,
or register
Callsign
Passwort

Schedule Details

Flight Number: RYR3094 (1)
Departure: Paris Beauvais-Tille Airport (LFOB) at 10:35
Arrival: Thessaloniki International Airport (LGTS) at 13:25
Route: Ryanair Passenger Schedule. Enter filed route here before submitting Pirep.

Weather Information
Getting current METAR information for LFOB 192230Z AUTO 01008KT CAVOK 14/07 Q1026 NOSIG
Getting current METAR information for LGTS 192250Z 15005KT 9999 FEW020 13/09 Q1023 NOSIG

Schedule Frequency

Route Map